Weather History for KMGC - November, 2013

Change the Weather History Date:

Thursday, November 21, 2013

  Actual Average (KVPZ) Record (KVPZ)
Temperature  
Mean Temperature 44 °F 38 °F  
Max Temperature 50 °F 46 °F 62 °F (2010)
Min Temperature 39 °F 31 °F 11 °F (2014)
Degree Days  
Heating Degree Days 20 27  
Month to date heating degree days 464  
Since 1 July heating degree days 994  
Cooling Degree Days 0 0  
Month to date cooling degree days 0  
Year to date cooling degree days 713  
Moisture  
Dew Point 40 °F    
Average Humidity 83    
Maximum Humidity 100    
Minimum Humidity 66    
Precipitation  
Precipitation 0.00 in 0.09 in 0.44 in (2007)
Month to date precipitation 2.42  
Year to date precipitation 34.42  
Sea Level Pressure  
Sea Level Pressure 30.17 in    
Wind  
Wind Speed 5 mph (South)    
Max Wind Speed 12 mph    
Max Gust Speed 21 mph    
Visibility 8 miles    
Events Rain    
T = Trace of Precipitation, MM = Missing Value Source: NWS Daily Summary

Daily Weather History Graph

Daily Weather History Graph

Search for Another Location

Airport or City:

Trip Planner

Search our weather history database for the weather conditions in past years. The results will help you decide how hot, cold, wet, or windy it might be!

Date:

Astronomy

Nov. 21, 2013 Rise Set
Actual Time 6:43 AM CST 4:22 PM CST
Civil Twilight 6:13 AM CST 4:52 PM CST
Nautical Twilight 5:39 AM CST 5:26 PM CST
Astronomical Twilight 5:06 AM CST 5:59 PM CST
Moon 7:59 PM CST (11/21) 9:49 AM CST (11/21)
Length of Visible Light 10h 38m
Length of Day
9h 38m
Waning Gibbous, 85% of the Moon is Illuminated
Nov 21
Waning Gibbous
Nov 25
Last Quarter
Dec 2
New
Dec 9
First Quarter
Dec 17
Full

Hourly Weather History & Observations

Time (CST) Temp. Windchill Dew Point Humidity Pressure Visibility Wind Dir Wind Speed Gust Speed Precip Events Conditions
12:15 AM 39.2 °F 37.0 °F 35.6 °F 87% 30.17 in 10.0 mi ESE 3.5 mph - N/A   Overcast
12:35 AM 39.2 °F 37.0 °F 35.6 °F 87% 30.17 in 10.0 mi ESE 3.5 mph - N/A   Overcast
12:55 AM 41.0 °F 39.0 °F 35.6 °F 81% 30.17 in 10.0 mi ESE 3.5 mph - N/A   Overcast
1:15 AM 41.0 °F 38.0 °F 35.6 °F 81% 30.17 in 10.0 mi SE 4.6 mph - N/A   Overcast
1:35 AM 41.0 °F 37.1 °F 35.6 °F 81% 30.17 in 10.0 mi SE 5.8 mph - N/A   Overcast
1:55 AM 41.0 °F 38.0 °F 33.8 °F 76% 30.16 in 10.0 mi SSE 4.6 mph - N/A   Overcast
2:15 AM 41.0 °F 38.0 °F 33.8 °F 76% 30.16 in 10.0 mi SSE 4.6 mph - N/A   Overcast
2:35 AM 42.8 °F 40.1 °F 33.8 °F 70% 30.16 in 10.0 mi SSE 4.6 mph - N/A   Overcast
2:55 AM 42.8 °F 40.1 °F 33.8 °F 70% 30.15 in 10.0 mi SSE 4.6 mph - N/A   Overcast
3:15 AM 42.8 °F 40.1 °F 33.8 °F 70% 30.15 in 10.0 mi SE 4.6 mph - N/A   Overcast
3:35 AM 42.8 °F 38.6 °F 33.8 °F 70% 30.14 in 10.0 mi South 6.9 mph - N/A   Overcast
3:55 AM 42.8 °F 39.3 °F 33.8 °F 70% 30.14 in 10.0 mi SSE 5.8 mph - N/A   Overcast
4:15 AM 42.8 °F 38.6 °F 33.8 °F 70% 30.13 in 10.0 mi SSE 6.9 mph - N/A   Overcast
4:35 AM 42.8 °F 37.5 °F 33.8 °F 70% 30.13 in 10.0 mi South 9.2 mph - N/A   Overcast
4:55 AM 44.6 °F 40.2 °F 33.8 °F 66% 30.14 in 10.0 mi South 8.1 mph - N/A   Overcast
5:15 AM 44.6 °F 40.2 °F 33.8 °F 66% 30.14 in 10.0 mi South 8.1 mph 17.3 mph N/A   Overcast
5:35 AM 44.6 °F 39.7 °F 33.8 °F 66% 30.14 in 10.0 mi South 9.2 mph 16.1 mph N/A   Overcast
5:55 AM 44.6 °F 40.7 °F 33.8 °F 66% 30.15 in 10.0 mi SSW 6.9 mph - N/A   Overcast
6:15 AM 44.6 °F 40.2 °F 33.8 °F 66% 30.15 in 10.0 mi South 8.1 mph - N/A   Overcast
6:35 AM 44.6 °F 43.1 °F 33.8 °F 66% 30.15 in 10.0 mi South 3.5 mph - N/A   Overcast
6:55 AM 44.6 °F 41.4 °F 33.8 °F 66% 30.17 in 10.0 mi South 5.8 mph - N/A   Overcast
7:15 AM 44.6 °F 42.2 °F 35.6 °F 71% 30.17 in 10.0 mi SSE 4.6 mph - N/A   Overcast
7:35 AM 44.6 °F 42.2 °F 35.6 °F 71% 30.18 in 10.0 mi South 4.6 mph - N/A   Overcast
7:55 AM 44.6 °F 40.7 °F 35.6 °F 71% 30.18 in 10.0 mi South 6.9 mph - N/A   Overcast
8:15 AM 44.6 °F 40.7 °F 35.6 °F 71% 30.18 in 10.0 mi South 6.9 mph - N/A   Overcast
8:35 AM 46.4 °F 43.5 °F 37.4 °F 71% 30.19 in 10.0 mi South 5.8 mph - N/A   Overcast
8:55 AM 46.4 °F 43.5 °F 37.4 °F 71% 30.19 in 10.0 mi SSW 5.8 mph - N/A   Mostly Cloudy
9:15 AM 46.4 °F 41.9 °F 37.4 °F 71% 30.21 in 10.0 mi South 9.2 mph - N/A   Mostly Cloudy
9:35 AM 46.4 °F 42.4 °F 37.4 °F 71% 30.20 in 10.0 mi South 8.1 mph - N/A   Overcast
9:55 AM 48.2 °F - 37.4 °F 66% 30.19 in 10.0 mi South 9.2 mph 16.1 mph N/A   Scattered Clouds
10:15 AM 48.2 °F - 37.4 °F 66% 30.19 in 10.0 mi South 9.2 mph 18.4 mph N/A   Scattered Clouds
10:35 AM 50.0 °F - 39.2 °F 66% 30.19 in 10.0 mi South 9.2 mph 18.4 mph N/A   Scattered Clouds
10:55 AM 48.2 °F - 39.2 °F 71% 30.19 in 10.0 mi South 11.5 mph 17.3 mph N/A   Scattered Clouds
11:15 AM 48.2 °F - 39.2 °F 71% 30.18 in 10.0 mi South 9.2 mph 20.7 mph N/A   Mostly Cloudy
11:35 AM 50.0 °F - 39.2 °F 66% 30.18 in 10.0 mi South 10.4 mph 16.1 mph N/A   Overcast
11:55 AM 50.0 °F - 39.2 °F 66% 30.16 in 10.0 mi SSW 10.4 mph - N/A   Overcast
12:15 PM 48.2 °F - 39.2 °F 71% 30.16 in 10.0 mi SSW 9.2 mph - N/A   Overcast
12:35 PM 46.4 °F 41.9 °F 41.0 °F 81% 30.17 in 10.0 mi South 9.2 mph - N/A   Overcast
12:55 PM 46.4 °F 42.4 °F 41.0 °F 81% 30.15 in 10.0 mi South 8.1 mph - N/A   Light Drizzle
1:15 PM 46.4 °F 43.5 °F 41.0 °F 81% 30.15 in 10.0 mi South 5.8 mph - N/A Rain Light Rain
1:35 PM 46.4 °F 42.9 °F 42.8 °F 87% 30.17 in 7.0 mi South 6.9 mph - N/A Rain Rain
1:55 PM 46.4 °F 45.2 °F 42.8 °F 87% 30.17 in 4.0 mi South 3.5 mph - N/A Rain Rain
2:15 PM 46.4 °F 43.5 °F 42.8 °F 87% 30.16 in 5.0 mi South 5.8 mph - N/A Rain Light Rain
2:35 PM 44.6 °F 42.2 °F 42.8 °F 93% 30.15 in 5.0 mi South 4.6 mph - N/A   Drizzle
2:55 PM 44.6 °F 43.1 °F 42.8 °F 93% 30.15 in 5.0 mi South 3.5 mph - N/A Rain Rain
3:15 PM 44.6 °F - 42.8 °F 93% 30.15 in 5.0 mi Calm Calm - N/A Rain Light Rain
3:35 PM 44.6 °F - 44.6 °F 100% 30.15 in 5.0 mi Calm Calm - N/A   Drizzle
3:55 PM 44.6 °F 43.1 °F 42.8 °F 93% 30.15 in 4.0 mi South 3.5 mph - N/A   Drizzle
4:15 PM 44.6 °F 41.4 °F 42.8 °F 93% 30.16 in 5.0 mi South 5.8 mph - N/A   Drizzle
4:35 PM 44.6 °F - 42.8 °F 93% 30.17 in 5.0 mi Calm Calm - N/A Rain Rain
4:55 PM 44.6 °F 43.1 °F 42.8 °F 93% 30.17 in 5.0 mi South 3.5 mph - N/A Rain Light Rain
5:15 PM 44.6 °F - 44.6 °F 100% 30.17 in 7.0 mi Calm Calm - N/A Rain Rain
5:35 PM 44.6 °F 43.1 °F 44.6 °F 100% 30.17 in 7.0 mi South 3.5 mph - N/A Rain Light Rain
5:55 PM 44.6 °F - 44.6 °F 100% 30.17 in 7.0 mi Calm Calm - N/A Rain Light Rain
6:15 PM 44.6 °F - 44.6 °F 100% 30.17 in 7.0 mi Calm Calm - N/A Rain Light Rain
6:35 PM 44.6 °F - 44.6 °F 100% 30.17 in 7.0 mi Calm Calm - N/A   Drizzle
6:55 PM 44.6 °F - 44.6 °F 100% 30.17 in 7.0 mi Calm Calm - N/A   Drizzle
7:15 PM 44.6 °F - 44.6 °F 100% 30.17 in 5.0 mi Calm Calm - N/A   Drizzle
7:35 PM 44.6 °F - 44.6 °F 100% 30.18 in 5.0 mi Calm Calm - N/A   Drizzle
7:55 PM 44.6 °F 43.1 °F 44.6 °F 100% 30.18 in 4.0 mi SSW 3.5 mph - N/A Rain Rain
8:15 PM 44.6 °F 43.1 °F 44.6 °F 100% 30.18 in 4.0 mi SW 3.5 mph - N/A Rain Rain
8:35 PM 44.6 °F - 44.6 °F 100% 30.18 in 3.0 mi Calm Calm - N/A   Drizzle
8:55 PM 44.6 °F - 44.6 °F 100% 30.18 in 2.5 mi Calm Calm - N/A Rain Light Rain
9:15 PM 44.6 °F - 44.6 °F 100% 30.19 in 3.0 mi Calm Calm - N/A   Light Drizzle
9:35 PM 44.6 °F - 44.6 °F 100% 30.18 in 4.0 mi Calm Calm - N/A   Overcast
9:55 PM 44.6 °F - 44.6 °F 100% 30.18 in 4.0 mi Calm Calm - N/A   Overcast
10:15 PM 44.6 °F - 44.6 °F 100% 30.18 in 4.0 mi Calm Calm - N/A   Overcast
10:35 PM 44.6 °F - 44.6 °F 100% 30.18 in 4.0 mi Calm Calm - N/A   Overcast
10:55 PM 44.6 °F - 44.6 °F 100% 30.18 in 5.0 mi Calm Calm - N/A   Overcast
11:15 PM 44.6 °F - 44.6 °F 100% 30.19 in 4.0 mi Calm Calm - N/A   Overcast
11:35 PM 44.6 °F 43.1 °F 44.6 °F 100% 30.19 in 2.0 mi NNW 3.5 mph - N/A   Overcast
11:55 PM 44.6 °F - 42.8 °F 93% 30.18 in 1.0 mi Calm Calm - N/A   Overcast